Location: Montreal
(45.5087°N, 73.5540°W)
Time: 18:57:48
(UTC-04:00)

Amateur Radio Satellites - All Passes

Search period start: 20 August 2017 18:27
Search period end: 21 August 2017 18:27
Location: Montreal, 45.5087°N, 73.5540°W

Satellite Date Start Highest point End Downlink Frequencies (MHz)
Time Altitude Azimuth
RS-15 20 Aug 18:31:13 18:42:43 43° 31° (NNE) 18:53:42 29.354- 29.394
KKS-1 20 Aug 18:37:21 18:41:36 45° 290° (WNW) 18:45:47 437.445
CUTE 1.7 + AOD 2 20 Aug 18:38:41 18:42:30 34° 69° (ENE) 18:46:23 437.475
AAUSAT CUBESAT 2 20 Aug 18:41:04 18:42:36 12° 60° (ENE) 18:44:09 437.432
UWE-3 20 Aug 18:41:43 18:43:31 13° 61° (ENE) 18:45:19 435.000/436.395/437.385
CUBESAT XI-V 20 Aug 18:42:42 18:46:16 22° 297° (WNW) 18:49:49 437.345
CUBEBUG 2 20 Aug 18:46:26 18:49:47 23° 66° (ENE) 18:53:06 437.445
HO-68 20 Aug 18:47:33 18:54:36 64° 68° (ENE) 19:01:40 435.675
KAITUO 1B 20 Aug 18:52:26 18:55:53 37° 262° (W) 18:59:23 145.475/437.950
CUTE-I 20 Aug 18:52:28 18:57:38 48° 261° (W) 19:02:50 437.470
XW-2A 20 Aug 19:00:12 19:03:00 26° 69° (ENE) 19:05:49 145.665 - 145.685
STRAND 1 20 Aug 19:06:51 19:09:25 14° 88° (E) 19:11:58 437.568
LilacSat-2 20 Aug 19:14:42 19:17:07 16° 269° (W) 19:19:32 437.200
STARS 20 Aug 19:17:02 19:21:07 40° 291° (WNW) 19:25:11 437.465
XW-2D 20 Aug 19:19:39 19:21:48 15° 269° (W) 19:23:59 145.860 - 145.880
ZACube-1 20 Aug 19:21:08 19:23:56 18° 64° (ENE) 19:26:43 437.345
SEEDS 20 Aug 19:26:47 19:30:58 71° 75° (ENE) 19:35:12 437.485
NUDT-PHONESAT 20 Aug 19:27:07 19:29:25 16° 268° (W) 19:31:46 437.300
XW-2B 20 Aug 19:31:39 19:32:57 11° 271° (W) 19:34:16 145.730 - 145.750
AO-73 20 Aug 19:41:49 19:45:12 25° 67° (ENE) 19:48:36 145.935
O/OREOS (USA 219) 20 Aug 19:55:18 19:59:48 63° 249° (WSW) 20:04:18 437.305
AAUSAT CUBESAT 2 20 Aug 20:13:16 20:17:25 78° 256° (WSW) 20:21:38 437.432
CUTE 1.7 + AOD 2 20 Aug 20:15:00 20:18:24 23° 267° (W) 20:21:51 437.475
UWE-3 20 Aug 20:15:15 20:19:27 71° 259° (W) 20:23:36 435.000/436.395/437.385
CUBEBUG 2 20 Aug 20:22:20 20:26:15 35° 263° (W) 20:30:07 437.445
Oscar 11 20 Aug 20:26:18 20:30:30 56° 73° (ENE) 20:34:45 .
XW-2A 20 Aug 20:33:20 20:35:45 19° 266° (W) 20:38:10 145.665 - 145.685
HO-68 20 Aug 20:36:55 20:42:48 27° 267° (W) 20:48:44 435.675
STRAND 1 20 Aug 20:44:05 20:49:12 79° 286° (WNW) 20:54:18 437.568
RS-15 20 Aug 20:44:22 20:56:29 80° 239° (WSW) 21:07:55 29.354- 29.394
ZACube-1 20 Aug 20:55:53 20:59:52 45° 261° (W) 21:03:53 437.345
FO-29 20 Aug 20:58:00 21:00:31 13° 85° (E) 21:02:57 435.910
SEEDS 20 Aug 21:05:46 21:07:08 11° 272° (W) 21:08:31 437.485
Max Valier Satellite 20 Aug 21:12:20 21:15:34 30° 70° (ENE) 21:18:49 145.860
AO-73 20 Aug 21:17:41 21:21:20 30° 264° (W) 21:25:01 145.935
DELFI C3 20 Aug 21:21:33 21:25:27 54° 73° (ENE) 21:29:24 145.870
PCSat 20 Aug 21:39:01 21:40:51 12° 102° (ESE) 21:42:42 145.827
UNISAT 6 20 Aug 21:44:01 21:46:15 14° 90° (E) 21:48:30 437.425
PRISM 20 Aug 21:54:58 21:56:07 11° 89° (E) 21:57:15 437.425
Oscar 11 20 Aug 22:04:33 22:07:00 15° 270° (W) 22:09:28 .
LO-87 20 Aug 22:05:31 22:07:34 15° 64° (ENE) 22:09:35 145.935 - 145.965
EO-88 20 Aug 22:06:28 22:10:05 73° 257° (WSW) 22:13:45 145.990 - 145.960
TIGRISAT 20 Aug 22:18:00 22:21:43 28° 95° (E) 22:25:30 435.000
STRAND 1 20 Aug 22:25:29 22:27:33 12° 305° (NW) 22:29:37 437.568
FO-29 20 Aug 22:40:51 22:46:35 83° 286° (WNW) 22:51:49 435.910
Max Valier Satellite 20 Aug 22:46:47 22:49:28 19° 267° (W) 22:52:10 145.860
DELFI C3 20 Aug 22:58:32 23:00:34 13° 270° (W) 23:02:35 145.870
RS-15 20 Aug 22:58:50 23:06:51 22° 262° (W) 23:14:39 29.354- 29.394
ESTCUBE 1 20 Aug 23:00:48 23:05:05 45° 70° (ENE) 23:09:25 437.505/2401.250
VELOX 1 20 Aug 23:10:40 23:13:00 14° 59° (ENE) 23:15:19 145.980
PCSat 20 Aug 23:17:55 23:23:20 79° 120° (ESE) 23:28:47 145.827
SPROUT 20 Aug 23:19:01 23:21:59 19° 63° (ENE) 23:24:57 437.525
UNISAT 6 20 Aug 23:19:06 23:23:21 61° 287° (WNW) 23:27:39 437.425
PRISM 20 Aug 23:27:44 23:31:52 71° 287° (WNW) 23:35:57 437.425
SO-50 20 Aug 23:36:32 23:40:59 63° 123° (ESE) 23:45:28 436.795
LO-87 20 Aug 23:37:13 23:40:39 42° 261° (W) 23:44:05 145.935 - 145.965
NANOSAT C BR1 20 Aug 23:53:34 23:56:08 16° 91° (E) 23:58:41 145.865
TIGRISAT 20 Aug 23:54:40 23:58:23 29° 292° (WNW) 00:02:09 435.000
POLYITAN 1 20 Aug 23:57:42 00:00:46 19° 93° (E) 00:03:50 437.675
AIST 2D 20 Aug 23:59:30 00:02:58 47° 99° (E) 00:06:24 435.315
QB50P2 21 Aug 00:12:20 00:16:04 30° 96° (E) 00:19:47 145.880/145.840
EO-79 21 Aug 00:13:09 00:16:47 28° 95° (E) 00:20:25 145.935-145.965
M-CUBED/EXP-1 PRIME 21 Aug 00:23:56 00:28:13 48° 104° (ESE) 00:32:11 437.505
UKube-1 21 Aug 00:27:00 00:29:47 17° 61° (ENE) 00:32:33 .
50 SAT 21 Aug 00:27:11 00:30:01 25° 69° (ENE) 00:32:53 437.505
FO-29 21 Aug 00:27:57 00:30:39 14° 308° (NW) 00:33:14 435.910
ESTCUBE 1 21 Aug 00:38:45 00:42:06 20° 268° (W) 00:45:28 437.505/2401.250
DUCHIFAT 1 21 Aug 00:43:04 00:47:06 46° 99° (E) 00:51:07 145.980
VELOX 1 21 Aug 00:44:25 00:48:52 73° 258° (WSW) 00:53:20 145.980
BUGSAT 1 21 Aug 00:45:12 00:47:12 13° 91° (E) 00:49:12 437.445
DX 1 21 Aug 00:46:51 00:50:53 37° 69° (ENE) 00:54:56 434.975-435.025
SPROUT 21 Aug 00:53:27 00:57:33 46° 261° (W) 01:01:41 437.525
PCSat 21 Aug 01:03:09 01:07:22 22° 321° (NW) 01:11:36 145.827
NO-84 21 Aug 01:17:15 01:19:32 21° 133° (SE) 01:21:47 435.350 FM
SO-50 21 Aug 01:18:17 01:21:50 22° 322° (NW) 01:25:25 436.795
NANOSAT C BR1 21 Aug 01:28:04 01:32:08 50° 288° (WNW) 01:36:11 145.865
ITUPSAT 1 21 Aug 01:30:02 01:30:43 10° 55° (NE) 01:31:23 437.325
POLYITAN 1 21 Aug 01:32:45 01:36:43 41° 290° (WNW) 01:40:41 437.675
Gurwin Techsat 1B 21 Aug 01:32:47 01:35:50 15° 89° (E) 01:38:51 435.225
AIST 2D 21 Aug 01:34:03 01:35:46 13° 296° (WNW) 01:37:29 435.315
QB50P2 21 Aug 01:48:14 01:51:46 27° 293° (WNW) 01:55:19 145.880/145.840
EO-79 21 Aug 01:48:54 01:52:30 28° 293° (WNW) 01:56:07 145.935-145.965
Oscar 19 21 Aug 01:58:12 02:03:03 38° 97° (E) 02:07:52 437.125/150
M-CUBED/EXP-1 PRIME 21 Aug 01:58:58 02:02:15 21° 303° (WNW) 02:05:23 437.505
50 SAT 21 Aug 02:00:01 02:02:40 21° 265° (W) 02:05:20 437.505
UKube-1 21 Aug 02:01:07 02:05:23 56° 259° (W) 02:09:39 .
YUBILEINY 21 Aug 02:11:47 02:19:34 34° 67° (ENE) 02:27:16 435.215
MOZHAYETS 4 21 Aug 02:14:15 02:17:36 21° 63° (ENE) 02:20:59
BUGSAT 1 21 Aug 02:18:58 02:22:54 54° 288° (WNW) 02:26:49 437.445
DUCHIFAT 1 21 Aug 02:19:34 02:22:26 18° 297° (WNW) 02:25:18 145.980
DX 1 21 Aug 02:23:41 02:27:10 23° 266° (W) 02:30:42 434.975-435.025
BEESAT 21 Aug 02:29:07 02:33:24 35° 67° (ENE) 02:37:43 436.000
NO-84 21 Aug 02:54:03 02:56:45 38° 331° (NNW) 02:59:27 435.350 FM
AO-7 21 Aug 02:56:49 03:01:59 17° 88° (E) 03:07:06 .
ITUPSAT 1 21 Aug 03:02:56 03:07:40 72° 73° (ENE) 03:12:25 437.325
Gurwin Techsat 1B 21 Aug 03:11:02 03:16:22 77° 286° (WNW) 03:21:40 435.225
ITAMSAT 1 21 Aug 03:18:58 03:22:01 16° 90° (E) 03:25:05 435.822/435.867
Oscar 19 21 Aug 03:37:43 03:42:16 31° 295° (WNW) 03:46:48 437.125/150
MOZHAYETS 4 21 Aug 03:50:04 03:54:27 47° 261° (W) 03:58:52
KKS-1 21 Aug 04:01:31 04:05:08 25° 65° (ENE) 04:08:47 437.445
BEESAT 21 Aug 04:07:08 04:11:13 28° 265° (W) 04:15:19 436.000
YUBILEINY 21 Aug 04:08:21 04:16:50 59° 269° (W) 04:25:16 435.215
CUBESAT XI-V 21 Aug 04:09:41 04:14:16 60° 73° (ENE) 04:18:53 437.345
NO-84 21 Aug 04:33:09 04:34:46 14° 352° (N) 04:36:24 435.350 FM
STARS 21 Aug 04:39:47 04:43:25 26° 65° (ENE) 04:47:03 437.465
ITUPSAT 1 21 Aug 04:43:35 04:46:00 14° 271° (W) 04:48:27 437.325
AO-7 21 Aug 04:47:37 04:56:01 81° 109° (ESE) 05:04:19 .
Gurwin Techsat 1B 21 Aug 04:53:11 04:55:26 13° 305° (NW) 04:57:41 435.225
ITAMSAT 1 21 Aug 04:56:52 05:02:02 72° 287° (WNW) 05:07:11 435.822/435.867
AO-85 21 Aug 05:07:35 05:10:37 21° 114° (ESE) 05:13:37 145.980
BEESAT 3 21 Aug 05:13:48 05:17:34 41° 119° (ESE) 05:21:22 437.485
BEESAT 2 21 Aug 05:28:47 05:31:45 20° 113° (ESE) 05:34:44 435.950
KKS-1 21 Aug 05:37:22 05:41:31 37° 262° (W) 05:45:41 437.445
CUBESAT XI-V 21 Aug 05:49:09 05:52:02 16° 270° (W) 05:54:57 437.345
XW-2F 21 Aug 05:57:52 05:59:17 12° 89° (E) 06:00:42 145.980 - 146.000
DOVE 4 21 Aug 06:06:03 06:10:32 50° 99° (E) 06:14:44 437.250
YUBILEINY 21 Aug 06:09:37 06:11:36 11° 291° (WNW) 06:13:34 435.215
NO-84 21 Aug 06:11:08 06:13:04 16° 14° (NNE) 06:15:04 435.350 FM
STARS 21 Aug 06:15:35 06:19:36 34° 263° (W) 06:23:39 437.465
PCSat 21 Aug 06:20:54 06:25:04 22° 39° (NE) 06:29:13 145.827
KAITUO 1B 21 Aug 06:21:43 06:24:21 18° 92° (E) 06:26:58 145.475/437.950
STRAND 1 21 Aug 06:24:12 06:28:23 26° 63° (ENE) 06:32:35 437.568
SO-50 21 Aug 06:25:50 06:29:12 20° 36° (NE) 06:32:35 436.795
ITAMSAT 1 21 Aug 06:38:51 06:40:35 12° 306° (NW) 06:42:19 435.822/435.867
AO-7 21 Aug 06:41:17 06:47:58 28° 309° (NW) 06:54:37 .
LilacSat-2 21 Aug 06:43:54 06:47:38 44° 99° (E) 06:51:21 437.200
AO-85 21 Aug 06:47:04 06:50:45 39° 313° (NW) 06:54:29 145.980
XW-2D 21 Aug 06:47:51 06:51:35 47° 99° (E) 06:55:18 145.860 - 145.880
BEESAT 3 21 Aug 06:51:52 06:55:15 26° 317° (NW) 06:58:41 437.485
NUDT-PHONESAT 21 Aug 06:53:28 06:57:01 38° 98° (E) 07:00:32 437.300
XW-2B 21 Aug 06:58:51 07:02:41 62° 101° (ESE) 07:06:29 145.730 - 145.750
BEESAT 2 21 Aug 07:05:19 07:09:12 45° 311° (NW) 07:13:08 435.950
CUTE-I 21 Aug 07:06:56 07:12:11 57° 101° (E) 07:17:23 437.470
SEEDS 21 Aug 07:11:08 07:11:45 10° 87° (E) 07:12:23 437.485
FO-29 21 Aug 07:13:24 07:16:29 13° 52° (NE) 07:19:27 435.910
XW-2C 21 Aug 07:17:57 07:21:48 76° 284° (WNW) 07:25:39 145.795 - 145.815
XW-2F 21 Aug 07:29:58 07:33:45 57° 286° (WNW) 07:37:31 145.980 - 146.000
DOVE 4 21 Aug 07:44:36 07:47:49 19° 298° (WNW) 07:50:55 437.250
NO-84 21 Aug 07:47:59 07:50:56 58° 33° (NNE) 07:54:05 435.350 FM
XW-2A 21 Aug 07:52:07 07:54:44 20° 94° (E) 07:57:20 145.665 - 145.685
AAUSAT CUBESAT 2 21 Aug 07:54:25 07:56:42 14° 90° (E) 07:58:59 437.432
KAITUO 1B 21 Aug 07:54:58 07:58:29 36° 289° (WNW) 08:01:59 145.475/437.950
CUTE 1.7 + AOD 2 21 Aug 07:56:25 08:00:38 50° 99° (E) 08:04:48 437.475
HO-68 21 Aug 08:00:14 08:07:16 55° 101° (ESE) 08:14:14 435.675
STRAND 1 21 Aug 08:02:28 08:07:21 44° 261° (W) 08:12:14 437.568
UWE-3 21 Aug 08:02:55 08:05:58 19° 92° (E) 08:09:03 435.000/436.395/437.385
PCSat 21 Aug 08:03:41 08:09:08 82° 240° (WSW) 08:14:33 145.827
SO-50 21 Aug 08:05:37 08:10:11 79° 237° (WSW) 08:14:47 436.795
CUBEBUG 2 21 Aug 08:10:07 08:14:02 37° 97° (E) 08:18:00 437.445
LilacSat-2 21 Aug 08:19:06 08:21:34 16° 296° (WNW) 08:24:02 437.200
XW-2D 21 Aug 08:23:07 08:25:24 15° 296° (WNW) 08:27:40 145.860 - 145.880
NUDT-PHONESAT 21 Aug 08:28:07 08:30:37 17° 295° (WNW) 08:33:07 437.300
O/OREOS (USA 219) 21 Aug 08:34:19 08:35:19 11° 97° (E) 08:36:19 437.305
XW-2B 21 Aug 08:34:45 08:36:22 12° 298° (WNW) 08:37:58 145.730 - 145.750
ZACube-1 21 Aug 08:41:36 08:45:16 27° 95° (E) 08:48:59 437.345
SEEDS 21 Aug 08:43:43 08:48:00 79° 285° (WNW) 08:52:14 437.485
UNISAT 6 21 Aug 08:45:02 08:47:47 17° 63° (ENE) 08:50:31 437.425
PRISM 21 Aug 08:46:16 08:47:58 12° 59° (ENE) 08:49:40 437.425
BEESAT 2 21 Aug 08:47:25 08:47:58 10° 332° (NNW) 08:48:32 435.950
CUTE-I 21 Aug 08:47:47 08:51:49 23° 299° (WNW) 08:55:51 437.470
FO-29 21 Aug 08:53:02 09:00:23 59° 70° (ENE) 09:07:01 435.910
AO-73 21 Aug 09:02:22 09:06:24 39° 98° (E) 09:10:30 145.935
RS-15 21 Aug 09:06:43 09:10:49 12° 91° (E) 09:14:55 29.354- 29.394
TIGRISAT 21 Aug 09:18:44 09:22:34 32° 68° (ENE) 09:26:23 435.000
XW-2A 21 Aug 09:24:36 09:27:26 25° 291° (WNW) 09:30:16 145.665 - 145.685
NO-84 21 Aug 09:26:00 09:28:05 16° 229° (SW) 09:30:14 435.350 FM
AAUSAT CUBESAT 2 21 Aug 09:28:24 09:32:31 55° 287° (WNW) 09:36:35 437.432
CUTE 1.7 + AOD 2 21 Aug 09:33:12 09:36:05 18° 297° (WNW) 09:38:57 437.475
ISS 21 Aug 09:35:25 09:37:12 14° 133° (SE) 09:38:58 437.550
UWE-3 21 Aug 09:38:36 09:42:36 42° 289° (WNW) 09:46:41 435.000/436.395/437.385
M-CUBED/EXP-1 PRIME 21 Aug 09:39:17 09:41:26 13° 52° (NE) 09:43:36 437.505
nSIGHT-1 21 Aug 09:42:53 09:45:05 17° 135° (SE) 09:47:17 .
Oscar 11 21 Aug 09:47:00 09:51:23 87° 105° (ESE) 09:55:45 .
CUBEBUG 2 21 Aug 09:47:13 09:50:28 22° 294° (WNW) 09:53:45 437.445
HO-68 21 Aug 09:48:25 09:54:42 34° 300° (WNW) 10:00:57 435.675
PCSat 21 Aug 09:49:31 09:51:38 12° 258° (WSW) 09:53:45 145.827
Tancredo 1 21 Aug 09:55:36 09:58:29 67° 148° (SSE) 10:01:23 437.200
O/OREOS (USA 219) 21 Aug 10:09:31 10:13:59 83° 295° (WNW) 10:18:30 437.305
Max Valier Satellite 21 Aug 10:13:22 10:16:42 30° 97° (E) 10:20:00 145.860
ZACube-1 21 Aug 10:17:47 10:21:32 30° 292° (WNW) 10:25:21 437.345
PRISM 21 Aug 10:18:30 10:22:39 76° 256° (WSW) 10:26:51 437.425
UNISAT 6 21 Aug 10:19:52 10:24:06 53° 260° (W) 10:28:19 437.425
DELFI C3 21 Aug 10:30:45 10:34:44 66° 102° (ESE) 10:38:40 145.870
AIST 2D 21 Aug 10:36:07 10:38:57 24° 69° (ENE) 10:41:50 435.315
AO-73 21 Aug 10:39:09 10:42:25 22° 294° (WNW) 10:45:44 145.935
FO-29 21 Aug 10:39:10 10:45:39 31° 266° (W) 10:51:39 435.910
NANOSAT C BR1 21 Aug 10:47:54 10:50:33 17° 63° (ENE) 10:53:13 145.865
POLYITAN 1 21 Aug 10:52:27 10:55:32 20° 64° (ENE) 10:58:37 437.675
TIGRISAT 21 Aug 10:55:42 10:59:18 25° 265° (W) 11:02:52 435.000
LO-87 21 Aug 11:03:20 11:04:45 12° 90° (E) 11:06:10 145.935 - 145.965
EO-88 21 Aug 11:06:22 11:10:03 76° 285° (WNW) 11:13:43 145.990 - 145.960
QB50P2 21 Aug 11:06:54 11:10:34 30° 68° (ENE) 11:14:15 145.880/145.840
EO-79 21 Aug 11:07:33 11:11:08 28° 67° (ENE) 11:14:44 145.935-145.965
RS-15 21 Aug 11:08:34 11:20:20 57° 113° (ESE) 11:32:11 29.354- 29.394
ISS 21 Aug 11:09:57 11:13:14 88° 150° (SSE) 11:16:32 437.550
M-CUBED/EXP-1 PRIME 21 Aug 11:10:32 11:15:04 84° 70° (ENE) 11:19:46 437.505
nSIGHT-1 21 Aug 11:17:50 11:21:07 78° 332° (NNW) 11:24:24 .
Oscar 11 21 Aug 11:25:26 11:26:50 11° 301° (WNW) 11:28:15 .
Tancredo 1 21 Aug 11:31:14 11:33:52 29° 347° (NNW) 11:36:28 437.200
DUCHIFAT 1 21 Aug 11:36:37 11:40:35 44° 71° (ENE) 11:44:34 145.980
BUGSAT 1 21 Aug 11:37:15 11:39:24 14° 62° (ENE) 11:41:32 437.445
Oscar 19 21 Aug 11:42:25 11:43:48 11° 53° (NE) 11:45:11 437.125/150
Max Valier Satellite 21 Aug 11:47:34 11:50:21 21° 293° (WNW) 11:53:08 145.860
O/OREOS (USA 219) 21 Aug 11:52:15 11:54:10 12° 315° (NW) 11:56:05 437.305
BEESAT 3 21 Aug 11:52:44 11:53:42 11° 29° (NNE) 11:54:40 437.485
DELFI C3 21 Aug 12:07:16 12:08:58 12° 299° (WNW) 12:10:39 145.870
AIST 2D 21 Aug 12:09:20 12:12:07 22° 266° (W) 12:14:55 435.315
NANOSAT C BR1 21 Aug 12:21:47 12:25:52 52° 260° (W) 12:29:59 145.865
POLYITAN 1 21 Aug 12:27:05 12:31:03 41° 262° (W) 12:35:02 437.675
ESTCUBE 1 21 Aug 12:27:16 12:31:51 73° 103° (ESE) 12:36:22 437.505/2401.250
VELOX 1 21 Aug 12:33:04 12:36:05 18° 92° (E) 12:39:05 145.980
LO-87 21 Aug 12:35:02 12:38:28 46° 287° (WNW) 12:41:51 145.935 - 145.965
SPROUT 21 Aug 12:37:01 12:40:29 24° 94° (E) 12:43:55 437.525
QB50P2 21 Aug 12:42:48 12:46:21 26° 265° (W) 12:49:55 145.880/145.840
EO-79 21 Aug 12:43:13 12:46:51 28° 264° (W) 12:50:30 145.935-145.965
ISS 21 Aug 12:47:02 12:50:00 30° 350° (N) 12:52:58 437.550
M-CUBED/EXP-1 PRIME 21 Aug 12:48:16 12:50:03 12° 267° (W) 12:51:51 437.505
nSIGHT-1 21 Aug 12:54:56 12:57:50 28° 352° (N) 13:00:44 .
Gurwin Techsat 1B 21 Aug 12:55:23 13:00:01 31° 65° (ENE) 13:04:39 435.225
Tancredo 1 21 Aug 13:07:07 13:09:35 24° 6° (N) 13:12:04 437.200
BUGSAT 1 21 Aug 13:10:15 13:14:17 60° 258° (WSW) 13:18:19 437.445
DUCHIFAT 1 21 Aug 13:13:39 13:16:29 17° 268° (W) 13:19:18 145.980
Oscar 19 21 Aug 13:17:03 13:22:09 69° 72° (ENE) 13:27:19 437.125/150
50 SAT 21 Aug 13:19:08 13:21:27 17° 93° (E) 13:23:46 437.505
RS-15 21 Aug 13:20:59 13:33:02 56° 318° (NW) 13:45:08 29.354- 29.394
BEESAT 3 21 Aug 13:28:18 13:32:14 50° 50° (NE) 13:36:04 437.485
AO-85 21 Aug 13:34:57 13:38:59 41° 48° (NE) 13:43:17 145.980
BEESAT 2 21 Aug 13:43:21 13:46:55 28° 44° (NE) 13:50:27 435.950
UKube-1 21 Aug 13:46:27 13:49:38 20° 93° (E) 13:52:48 .
AO-7 21 Aug 13:57:41 14:04:55 34° 55° (NE) 14:12:09 .
ESTCUBE 1 21 Aug 14:05:36 14:08:05 15° 300° (WNW) 14:10:32 437.505/2401.250
DX 1 21 Aug 14:08:24 14:12:39 50° 100° (E) 14:16:52 434.975-435.025
VELOX 1 21 Aug 14:08:32 14:12:48 49° 289° (WNW) 14:17:02 145.980
SPROUT 21 Aug 14:12:36 14:16:26 33° 291° (WNW) 14:20:15 437.525
ISS 21 Aug 14:24:06 14:27:04 30° 10° (N) 14:30:01 437.550
nSIGHT-1 21 Aug 14:31:50 14:34:48 31° 12° (NNE) 14:37:46 .
Gurwin Techsat 1B 21 Aug 14:34:53 14:39:50 39° 263° (W) 14:44:50 435.225
ITAMSAT 1 21 Aug 14:38:28 14:43:00 32° 65° (ENE) 14:47:33 435.822/435.867
Tancredo 1 21 Aug 14:42:15 14:45:09 65° 26° (NNE) 14:48:01 437.200
50 SAT 21 Aug 14:51:13 14:54:11 28° 290° (WNW) 14:57:07 437.505
Oscar 19 21 Aug 14:58:46 15:01:58 17° 270° (W) 15:05:13 437.125/150
ITUPSAT 1 21 Aug 15:02:24 15:05:12 15° 90° (E) 15:08:00 437.325
BEESAT 3 21 Aug 15:06:43 15:09:26 18° 248° (WSW) 15:12:06 437.485
AO-85 21 Aug 15:15:36 15:19:14 26° 244° (WSW) 15:23:04 145.980
YUBILEINY 21 Aug 15:16:00 15:23:42 36° 84° (E) 15:31:22 435.215
BEESAT 2 21 Aug 15:20:59 15:24:43 36° 242° (WSW) 15:28:24 435.950
UKube-1 21 Aug 15:21:45 15:25:50 42° 290° (WNW) 15:29:53 .
RS-15 21 Aug 15:38:23 15:49:01 31° 350° (N) 15:59:26 29.354- 29.394
DOVE 4 21 Aug 15:39:30 15:40:44 11° 56° (NE) 15:41:58 437.250
MOZHAYETS 4 21 Aug 15:42:38 15:46:48 33° 96° (E) 15:50:59
DX 1 21 Aug 15:45:28 15:48:29 19° 298° (WNW) 15:51:28 434.975-435.025
AO-7 21 Aug 15:48:52 15:57:11 66° 255° (WSW) 16:05:32 .
ISS 21 Aug 16:00:33 16:03:50 90° 33° (NNE) 16:07:06 437.550
BEESAT 21 Aug 16:03:55 16:08:38 60° 101° (ESE) 16:13:21 436.000
CUBESAT XI-V 21 Aug 16:05:41 16:07:49 13° 88° (E) 16:09:56 437.345
nSIGHT-1 21 Aug 16:08:10 16:11:25 76° 212° (SSW) 16:14:38 .
ITAMSAT 1 21 Aug 16:17:34 16:22:22 37° 263° (W) 16:27:12 435.822/435.867
Tancredo 1 21 Aug 16:18:03 16:20:02 17° 223° (SW) 16:22:02 437.200
ITUPSAT 1 21 Aug 16:38:44 16:43:29 66° 288° (WNW) 16:48:13 437.325
HO-68 21 Aug 16:49:15 16:51:40 12° 44° (NE) 16:54:05 435.675
CUTE-I 21 Aug 16:53:16 16:56:51 19° 59° (ENE) 17:00:26 437.470
KAITUO 1B 21 Aug 17:04:58 17:06:31 12° 62° (ENE) 17:08:06 145.475/437.950
YUBILEINY 21 Aug 17:11:32 17:20:07 56° 285° (WNW) 17:28:44 435.215
DOVE 4 21 Aug 17:12:16 17:17:31 67° 74° (ENE) 17:22:37 437.250
MOZHAYETS 4 21 Aug 17:19:54 17:23:53 29° 294° (WNW) 17:27:50
KKS-1 21 Aug 17:25:44 17:29:47 33° 97° (E) 17:33:48 437.445
LilacSat-2 21 Aug 17:27:53 17:31:12 30° 69° (ENE) 17:34:33 437.200
XW-2D 21 Aug 17:31:09 17:34:29 31° 70° (ENE) 17:37:51 145.860 - 145.880
NUDT-PHONESAT 21 Aug 17:34:56 17:37:56 24° 68° (ENE) 17:40:58 437.300
ISS 21 Aug 17:38:04 17:39:53 14° 226° (SW) 17:41:43 437.550
CUBESAT XI-V 21 Aug 17:41:00 17:45:44 76° 285° (WNW) 17:50:25 437.345
XW-2B 21 Aug 17:42:00 17:45:31 39° 71° (ENE) 17:49:05 145.730 - 145.750
BEESAT 21 Aug 17:42:43 17:45:57 18° 299° (WNW) 17:49:11 436.000
nSIGHT-1 21 Aug 17:46:10 17:47:17 11° 228° (SW) 17:48:22 .
AO-7 21 Aug 17:48:04 17:51:32 13° 275° (W) 17:55:01 .
RS-15 21 Aug 17:54:49 18:06:01 38° 25° (NNE) 18:16:44 29.354- 29.394
XW-2C 21 Aug 18:00:53 18:04:37 68° 74° (ENE) 18:08:23 145.795 - 145.815
STARS 21 Aug 18:02:15 18:06:14 34° 97° (E) 18:10:12 437.465
SEEDS 21 Aug 18:05:13 18:06:09 11° 59° (ENE) 18:07:05 437.485
XW-2F 21 Aug 18:12:23 18:16:09 89° 56° (NE) 18:19:56 145.980 - 146.000
